| time (UTC) | temp F | wind direction | speed MPH | gust MPH | rain 1hr in | rain 24hr in | rain mn in | humidity % | barometer mb |
| 20260904172404 | 92 | 30 | 2.0 | 8.0 | 0.00 | 0.00 | 0.00 | 68 | 1014.3 |
| 20260904171905 | 93 | 7 | 4.0 | 8.0 | 0.00 | 0.00 | 0.00 | 67 | 1014.3 |
| 20260904170904 | 93 | 342 | 5.0 | 9.0 | 0.00 | 0.00 | 0.00 | 68 | 1014.4 |
| 20260904170404 | 92 | 331 | 2.0 | 10.0 | 0.00 | 0.00 | 0.00 | 67 | 1014.4 |
| 20260904165404 | 92 | 358 | 5.0 | 9.0 | 0.00 | 0.00 | 0.00 | 69 | 1014.6 |
| 20260904164904 | 93 | 357 | 5.0 | 9.0 | 0.00 | 0.00 | 0.00 | 64 | 1014.6 |
| 20260904163403 | 94 | 244 | 2.0 | 5.0 | 0.00 | 0.00 | 0.00 | 66 | 1014.7 |
| 20260904162904 | 95 | 51 | 3.0 | 5.0 | 0.00 | 0.00 | 0.00 | 66 | 1014.7 |
| 20260904162404 | 94 | 16 | 3.0 | 6.0 | 0.00 | 0.00 | 0.00 | 70 | 1014.8 |
| 20260904161903 | 94 | 128 | 3.0 | 6.0 | 0.00 | 0.00 | 0.00 | 70 | 1014.7 |
| 20260904161404 | 93 | 61 | 3.0 | 6.0 | 0.00 | 0.00 | 0.00 | 71 | 1014.6 |
| 20260904160405 | 92 | 57 | 2.0 | 9.0 | 0.00 | 0.00 | 0.00 | 72 | 1014.4 |
| 20260904155904 | 92 | 165 | 3.0 | 9.0 | 0.00 | 0.00 | 0.00 | 73 | 1014.4 |
| 20260904155405 | 91 | 92 | 2.0 | 10.0 | 0.00 | 0.00 | 0.00 | 77 | 1014.5 |
| 20260904154904 | 89 | 96 | 7.0 | 10.0 | 0.00 | 0.00 | 0.00 | 78 | 1014.5 |
| 20260904154404 | 88 | 129 | 10.0 | 10.0 | 0.00 | 0.00 | 0.00 | 80 | 1014.5 |
| 20260904153904 | 87 | 153 | 9.0 | 10.0 | 0.00 | 0.00 | 0.00 | 80 | 1014.5 |
| 20260904153405 | 86 | 136 | 2.0 | 6.0 | 0.00 | 0.00 | 0.00 | 82 | 1014.5 |
| 20260904152905 | 86 | 88 | 3.0 | 6.0 | 0.00 | 0.00 | 0.00 | 83 | 1014.6 |
| 20260904152404 | 85 | 119 | 2.0 | 6.0 | 0.00 | 0.00 | 0.00 | 84 | 1014.6 |
| 20260904151904 | 85 | 84 | 1.0 | 5.0 | 0.00 | 0.00 | 0.00 | 85 | 1014.4 |
| 20260904151403 | 85 | 84 | 1.0 | 5.0 | 0.00 | 0.00 | 0.00 | 85 | 1014.0 |
| 20260904150904 | 85 | 130 | 2.0 | 6.0 | 0.00 | 0.00 | 0.00 | 85 | 1014.0 |
| 20260904145904 | 84 | 102 | 2.0 | 8.0 | 0.00 | 0.00 | 0.00 | 85 | 1013.9 |
| 20260904145404 | 84 | 104 | 8.0 | 8.0 | 0.00 | 0.00 | 0.00 | 86 | 1014.0 |
| 20260904144405 | 84 | 137 | 3.0 | 6.0 | 0.00 | 0.00 | 0.00 | 87 | 1014.1 |
| 20260904143904 | 84 | 121 | 1.0 | 3.0 | 0.00 | 0.00 | 0.00 | 88 | 1014.0 |
| 20260904143404 | 84 | 182 | 0.0 | 0.0 | 0.00 | 0.00 | 0.00 | 89 | 1013.9 |
| 20260904142904 | 84 | 182 | 0.0 | 0.0 | 0.00 | 0.00 | 0.00 | 90 | 1013.9 |
| 20260904142404 | 83 | 182 | 0.0 | 0.0 | 0.00 | 0.00 | 0.00 | 91 | 1013.9 |
| 20260904141904 | 83 | 182 | 0.0 | 0.0 | 0.00 | 0.00 | 0.00 | 92 | 1013.9 |
| 20260904141404 | 83 | 182 | 0.0 | 0.0 | 0.00 | 0.00 | 0.00 | 93 | 1013.9 |
| 20260904140904 | 82 | 182 | 0.0 | 0.0 | 0.00 | 0.00 | 0.00 | 93 | 1013.8 |
| 20260904140405 | 82 | 182 | 0.0 | 0.0 | 0.00 | 0.00 | 0.00 | 93 | 1013.8 |
| 20260904135403 | 81 | 182 | 1.0 | 2.0 | 0.00 | 0.00 | 0.00 | 93 | 1013.7 |
| 20260904134403 | 81 | 182 | 0.0 | 0.0 | 0.00 | 0.00 | 0.00 | 93 | 1013.6 |
| 20260904133904 | 81 | 182 | 0.0 | 0.0 | 0.00 | 0.00 | 0.00 | 93 | 1013.6 |
| 20260904133405 | 81 | 182 | 0.0 | 0.0 | 0.00 | 0.00 | 0.00 | 93 | 1013.6 |
| 20260904131904 | 80 | 182 | 0.0 | 0.0 | 0.00 | 0.00 | 0.00 | 93 | 1013.5 |
| 20260904131403 | 80 | 182 | 0.0 | 0.0 | 0.00 | 0.00 | 0.00 | 93 | 1013.4 |
| 20260904125404 | 80 | 182 | 0.0 | 0.0 | 0.00 | 0.00 | 0.00 | 92 | 1013.4 |
| 20260904124904 | 79 | 182 | 0.0 | 0.0 | 0.00 | 0.00 | 0.00 | 92 | 1013.4 |
| 20260904124404 | 80 | 182 | 0.0 | 0.0 | 0.00 | 0.00 | 0.00 | 91 | 1013.3 |
| 20260904123904 | 80 | 182 | 0.0 | 0.0 | 0.00 | 0.00 | 0.00 | 91 | 1013.2 |
| 20260904123405 | 80 | 182 | 0.0 | 0.0 | 0.00 | 0.00 | 0.00 | 91 | 1013.1 |
| 20260904122903 | 80 | 182 | 0.0 | 1.0 | 0.00 | 0.00 | 0.00 | 91 | 1013.0 |
| 20260904122404 | 80 | 182 | 0.0 | 1.0 | 0.00 | 0.00 | 0.00 | 91 | 1012.9 |
| 20260904121903 | 80 | 182 | 0.0 | 0.0 | 0.00 | 0.00 | 0.00 | 91 | 1012.8 |
| 20260904121404 | 80 | 182 | 0.0 | 0.0 | 0.00 | 0.00 | 0.00 | 91 | 1012.7 |
| 20260904120905 | 80 | 182 | 0.0 | 0.0 | 0.00 | 0.00 | 0.00 | 91 | 1012.7 |
| 20260904120404 | 80 | 182 | 0.0 | 0.0 | 0.00 | 0.00 | 0.00 | 91 | 1012.7 |
| 20260904115904 | 80 | 182 | 0.0 | 0.0 | 0.00 | 0.00 | 0.00 | 91 | 1012.7 |
| 20260904115404 | 80 | 182 | 0.0 | 0.0 | 0.00 | 0.00 | 0.00 | 90 | 1012.6 |
| 20260904114904 | 80 | 182 | 0.0 | 0.0 | 0.00 | 0.00 | 0.00 | 90 | 1012.5 |
| 20260904114404 | 80 | 182 | 0.0 | 0.0 | 0.00 | 0.00 | 0.00 | 90 | 1012.6 |
| 20260904113404 | 80 | 182 | 0.0 | 0.0 | 0.00 | 0.00 | 0.00 | 90 | 1012.7 |
| 20260904112904 | 80 | 182 | 0.0 | 0.0 | 0.00 | 0.00 | 0.00 | 90 | 1012.5 |
| 20260904112403 | 80 | 182 | 0.0 | 0.0 | 0.00 | 0.00 | 0.00 | 90 | 1012.5 |
| 20260904111904 | 80 | 182 | 0.0 | 0.0 | 0.00 | 0.00 | 0.00 | 90 | 1012.5 |
| 20260904111403 | 80 | 182 | 0.0 | 0.0 | 0.00 | 0.00 | 0.00 | 90 | 1012.6 |
| 20260904110904 | 80 | 182 | 0.0 | 0.0 | 0.00 | 0.00 | 0.00 | 90 | 1012.5 |
| 20260904110404 | 80 | 182 | 0.0 | 0.0 | 0.00 | 0.00 | 0.00 | 90 | 1012.5 |
| 20260904105904 | 81 | 182 | 0.0 | 0.0 | 0.00 | 0.00 | 0.00 | 90 | 1012.5 |
| 20260904105404 | 81 | 182 | 0.0 | 0.0 | 0.00 | 0.00 | 0.00 | 90 | 1012.6 |
| 20260904104904 | 81 | 182 | 0.0 | 0.0 | 0.00 | 0.00 | 0.00 | 90 | 1012.6 |
| 20260904104404 | 81 | 182 | 0.0 | 0.0 | 0.00 | 0.00 | 0.00 | 90 | 1012.7 |
| 20260904103404 | 81 | 182 | 0.0 | 0.0 | 0.00 | 0.00 | 0.00 | 90 | 1012.4 |
| 20260904102904 | 81 | 182 | 0.0 | 0.0 | 0.00 | 0.00 | 0.00 | 89 | 1012.4 |
| 20260904102404 | 81 | 182 | 0.0 | 0.0 | 0.00 | 0.00 | 0.00 | 89 | 1012.3 |
| 20260904101904 | 81 | 182 | 0.0 | 0.0 | 0.00 | 0.00 | 0.00 | 89 | 1012.2 |
| 20260904101404 | 81 | 182 | 0.0 | 0.0 | 0.00 | 0.00 | 0.00 | 89 | 1012.2 |
| 20260904100904 | 81 | 182 | 0.0 | 0.0 | 0.00 | 0.00 | 0.00 | 89 | 1012.2 |
| 20260904100405 | 81 | 182 | 0.0 | 0.0 | 0.00 | 0.00 | 0.00 | 88 | 1012.1 |
| 20260904095904 | 81 | 182 | 0.0 | 0.0 | 0.00 | 0.00 | 0.00 | 88 | 1012.1 |
| 20260904095404 | 81 | 182 | 0.0 | 0.0 | 0.00 | 0.00 | 0.00 | 88 | 1012.1 |
| 20260904094904 | 81 | 182 | 0.0 | 0.0 | 0.00 | 0.00 | 0.00 | 88 | 1012.1 |
| 20260904094404 | 81 | 182 | 0.0 | 0.0 | 0.00 | 0.00 | 0.00 | 88 | 1012.1 |
| 20260904093904 | 81 | 182 | 0.0 | 0.0 | 0.00 | 0.00 | 0.00 | 88 | 1012.1 |
| 20260904092404 | 82 | 182 | 0.0 | 0.0 | 0.00 | 0.00 | 0.00 | 88 | 1012.0 |
| 20260904091904 | 82 | 182 | 0.0 | 0.0 | 0.00 | 0.00 | 0.00 | 88 | 1012.0 |
| 20260904090905 | 82 | 182 | 0.0 | 0.0 | 0.00 | 0.00 | 0.00 | 88 | 1012.0 |
| 20260904090403 | 82 | 182 | 0.0 | 0.0 | 0.00 | 0.00 | 0.00 | 87 | 1011.9 |
| 20260904085904 | 82 | 182 | 0.0 | 0.0 | 0.00 | 0.00 | 0.00 | 88 | 1011.9 |
| 20260904085405 | 82 | 182 | 0.0 | 0.0 | 0.00 | 0.00 | 0.00 | 88 | 1011.9 |
| 20260904084904 | 82 | 182 | 0.0 | 0.0 | 0.00 | 0.00 | 0.00 | 87 | 1011.8 |
| 20260904084404 | 82 | 182 | 0.0 | 0.0 | 0.00 | 0.00 | 0.00 | 87 | 1011.9 |
| 20260904083904 | 82 | 182 | 0.0 | 0.0 | 0.00 | 0.00 | 0.00 | 87 | 1011.9 |
| 20260904082903 | 82 | 182 | 0.0 | 0.0 | 0.00 | 0.00 | 0.00 | 87 | 1011.9 |
| 20260904082404 | 82 | 182 | 0.0 | 0.0 | 0.00 | 0.00 | 0.00 | 87 | 1011.9 |
| 20260904081904 | 82 | 182 | 0.0 | 0.0 | 0.00 | 0.00 | 0.00 | 87 | 1011.9 |
| 20260904081404 | 82 | 182 | 0.0 | 0.0 | 0.00 | 0.00 | 0.00 | 87 | 1012.0 |
| 20260904080904 | 82 | 182 | 0.0 | 2.0 | 0.00 | 0.00 | 0.00 | 87 | 1012.0 |
| 20260904080404 | 82 | 182 | 1.0 | 2.0 | 0.00 | 0.00 | 0.00 | 87 | 1011.9 |
| 20260904075904 | 82 | 181 | 0.0 | 0.0 | 0.00 | 0.00 | 0.00 | 87 | 1012.0 |
| 20260904075404 | 82 | 181 | 0.0 | 3.0 | 0.00 | 0.00 | 0.00 | 86 | 1011.9 |
| 20260904074404 | 82 | 181 | 0.0 | 1.0 | 0.00 | 0.00 | 0.00 | 86 | 1012.0 |
| 20260904073904 | 82 | 180 | 0.0 | 0.0 | 0.00 | 0.00 | 0.00 | 86 | 1012.0 |
| 20260904073404 | 82 | 180 | 0.0 | 0.0 | 0.00 | 0.00 | 0.00 | 86 | 1012.0 |
| 20260904072904 | 82 | 180 | 0.0 | 2.0 | 0.00 | 0.00 | 0.00 | 86 | 1012.0 |
| 20260904072404 | 82 | 180 | 0.0 | 2.0 | 0.00 | 0.00 | 0.00 | 86 | 1012.0 |
| 20260904071403 | 83 | 180 | 1.0 | 3.0 | 0.00 | 0.00 | 0.00 | 86 | 1012.0 |
| 20260904070904 | 83 | 180 | 1.0 | 3.0 | 0.00 | 0.00 | 0.00 | 86 | 1012.0 |
| 20260904065904 | 83 | 213 | 0.0 | 0.0 | 0.00 | 0.00 | 0.00 | 86 | 1012.2 |
| 20260904064904 | 83 | 213 | 0.0 | 3.0 | 0.00 | 0.00 | 0.00 | 86 | 1012.2 |
| 20260904064404 | 83 | 216 | 1.0 | 3.0 | 0.00 | 0.00 | 0.00 | 86 | 1012.2 |
| 20260904063904 | 83 | 218 | 1.0 | 3.0 | 0.00 | 0.00 | 0.00 | 86 | 1012.1 |
| 20260904063404 | 83 | 221 | 2.0 | 3.0 | 0.00 | 0.00 | 0.00 | 86 | 1012.2 |
| 20260904062904 | 83 | 190 | 0.0 | 2.0 | 0.00 | 0.00 | 0.00 | 86 | 1012.2 |
| 20260904062403 | 83 | 190 | 1.0 | 2.0 | 0.00 | 0.00 | 0.00 | 86 | 1012.2 |
| 20260904061903 | 83 | 190 | 1.0 | 2.0 | 0.00 | 0.00 | 0.00 | 86 | 1012.2 |
| 20260904061404 | 83 | 189 | 0.0 | 3.0 | 0.00 | 0.00 | 0.00 | 86 | 1012.2 |
| 20260904060903 | 83 | 189 | 0.0 | 5.0 | 0.00 | 0.00 | 0.00 | 86 | 1012.1 |
| 20260904060404 | 83 | 190 | 1.0 | 5.0 | 0.00 | 0.00 | 0.00 | 86 | 1012.2 |
| 20260904055904 | 83 | 190 | 1.0 | 5.0 | 0.00 | 0.00 | 0.00 | 86 | 1012.1 |
| 20260904055404 | 83 | 160 | 2.0 | 2.0 | 0.00 | 0.00 | 0.00 | 86 | 1012.2 |
| 20260904053904 | 83 | 171 | 1.0 | 5.0 | 0.00 | 0.00 | 0.00 | 87 | 1012.2 |
| 20260904053403 | 83 | 170 | 1.0 | 5.0 | 0.00 | 0.00 | 0.00 | 87 | 1012.1 |
| 20260904052903 | 83 | 169 | 2.0 | 5.0 | 0.00 | 0.00 | 0.00 | 87 | 1012.2 |
| 20260904052404 | 83 | 171 | 1.0 | 5.0 | 0.00 | 0.00 | 0.00 | 87 | 1012.2 |
| 20260904051904 | 83 | 170 | 1.0 | 5.0 | 0.00 | 0.00 | 0.00 | 87 | 1012.3 |
| 20260904045905 | 83 | 144 | 0.0 | 2.0 | 0.00 | 0.00 | 0.00 | 87 | 1012.4 |
| 20260904044904 | 83 | 144 | 1.0 | 2.0 | 0.00 | 0.00 | 0.00 | 87 | 1012.3 |
| 20260904044405 | 83 | 144 | 1.0 | 2.0 | 0.00 | 0.00 | 0.00 | 87 | 1012.3 |
| 20260904043904 | 83 | 144 | 0.0 | 2.0 | 0.00 | 0.00 | 0.00 | 86 | 1012.3 |
| 20260904043404 | 83 | 144 | 0.0 | 3.0 | 0.00 | 0.00 | 0.00 | 86 | 1012.4 |
| 20260904042904 | 83 | 144 | 1.0 | 3.0 | 0.00 | 0.00 | 0.00 | 86 | 1012.4 |
| 20260904042404 | 83 | 136 | 1.0 | 3.0 | 0.00 | 0.00 | 0.00 | 86 | 1012.4 |
| 20260904041905 | 83 | 148 | 1.0 | 5.0 | 0.00 | 0.00 | 0.00 | 86 | 1012.4 |
| 20260904041404 | 83 | 158 | 1.0 | 5.0 | 0.00 | 0.00 | 0.00 | 86 | 1012.4 |
| 20260904040904 | 83 | 116 | 2.0 | 5.0 | 0.00 | 0.00 | 0.00 | 86 | 1012.4 |
| 20260904040403 | 83 | 126 | 3.0 | 5.0 | 0.00 | 0.00 | 0.00 | 85 | 1012.4 |
| 20260904035404 | 83 | 134 | 2.0 | 8.0 | 0.00 | 0.00 | 0.00 | 85 | 1012.3 |
| 20260904034904 | 83 | 134 | 3.0 | 8.0 | 0.00 | 0.00 | 0.00 | 85 | 1012.3 |
| 20260904034404 | 83 | 137 | 1.0 | 8.0 | 0.00 | 0.00 | 0.00 | 85 | 1012.4 |
| 20260904033904 | 83 | 163 | 2.0 | 5.0 | 0.00 | 0.00 | 0.00 | 84 | 1012.5 |
| 20260904032904 | 83 | 165 | 1.0 | 5.0 | 0.00 | 0.00 | 0.00 | 84 | 1012.5 |
| 20260904031903 | 83 | 161 | 1.0 | 7.0 | 0.00 | 0.00 | 0.00 | 84 | 1012.5 |
| 20260904031405 | 83 | 166 | 3.0 | 7.0 | 0.00 | 0.00 | 0.00 | 84 | 1012.5 |
| 20260904030904 | 83 | 160 | 1.0 | 3.0 | 0.00 | 0.00 | 0.00 | 84 | 1012.5 |
| 20260904030404 | 83 | 138 | 0.0 | 5.0 | 0.00 | 0.00 | 0.00 | 84 | 1012.5 |
| 20260904025903 | 83 | 138 | 2.0 | 6.0 | 0.00 | 0.00 | 0.00 | 84 | 1012.5 |
| 20260904025404 | 84 | 137 | 3.0 | 6.0 | 0.00 | 0.00 | 0.00 | 84 | 1012.4 |
| 20260904024904 | 84 | 163 | 3.0 | 5.0 | 0.00 | 0.00 | 0.00 | 83 | 1012.4 |
| 20260904024404 | 84 | 160 | 1.0 | 2.0 | 0.00 | 0.00 | 0.00 | 84 | 1012.5 |
| 20260904022904 | 84 | 160 | 1.0 | 5.0 | 0.00 | 0.00 | 0.00 | 84 | 1012.3 |
| 20260904022403 | 84 | 129 | 1.0 | 5.0 | 0.00 | 0.00 | 0.00 | 84 | 1012.3 |
| 20260904021903 | 84 | 127 | 2.0 | 5.0 | 0.00 | 0.00 | 0.00 | 84 | 1012.1 |
| 20260904021405 | 84 | 134 | 0.0 | 7.0 | 0.00 | 0.00 | 0.00 | 84 | 1012.0 |
| 20260904020904 | 84 | 121 | 2.0 | 7.0 | 0.00 | 0.00 | 0.00 | 84 | 1012.0 |
| 20260904020403 | 84 | 125 | 2.0 | 5.0 | 0.00 | 0.00 | 0.00 | 84 | 1012.0 |
| 20260904015904 | 84 | 118 | 2.0 | 6.0 | 0.00 | 0.00 | 0.00 | 84 | 1012.0 |
| 20260904015405 | 84 | 94 | 3.0 | 6.0 | 0.00 | 0.00 | 0.00 | 84 | 1012.0 |
| 20260904014903 | 84 | 133 | 2.0 | 9.0 | 0.00 | 0.00 | 0.00 | 84 | 1011.9 |
| 20260904014405 | 84 | 83 | 2.0 | 9.0 | 0.00 | 0.00 | 0.00 | 84 | 1011.8 |
| 20260904013404 | 84 | 131 | 2.0 | 9.0 | 0.00 | 0.00 | 0.00 | 83 | 1011.7 |
| 20260904012903 | 85 | 142 | 3.0 | 6.0 | 0.00 | 0.00 | 0.00 | 83 | 1011.7 |
| 20260904012404 | 85 | 119 | 2.0 | 5.0 | 0.00 | 0.00 | 0.00 | 82 | 1011.6 |
| 20260904011904 | 85 | 110 | 2.0 | 5.0 | 0.00 | 0.00 | 0.00 | 82 | 1011.7 |
| 20260904010904 | 85 | 137 | 0.0 | 1.0 | 0.00 | 0.00 | 0.00 | 80 | 1011.6 |
| 20260904010404 | 85 | 137 | 0.0 | 2.0 | 0.00 | 0.00 | 0.00 | 80 | 1011.6 |
| 20260904005404 | 85 | 137 | 2.0 | 3.0 | 0.00 | 0.00 | 0.00 | 80 | 1011.6 |
| 20260904004904 | 85 | 137 | 2.0 | 3.0 | 0.00 | 0.00 | 0.00 | 79 | 1011.6 |
| 20260904004405 | 85 | 149 | 1.0 | 5.0 | 0.00 | 0.00 | 0.00 | 79 | 1011.5 |
| 20260904003904 | 85 | 158 | 1.0 | 5.0 | 0.00 | 0.00 | 0.00 | 79 | 1011.6 |
| 20260904003403 | 86 | 150 | 2.0 | 6.0 | 0.00 | 0.00 | 0.00 | 79 | 1011.6 |
| 20260904002904 | 86 | 157 | 1.0 | 6.0 | 0.00 | 0.00 | 0.00 | 79 | 1011.7 |
| 20260904002404 | 86 | 154 | 3.0 | 6.0 | 0.00 | 0.00 | 0.00 | 79 | 1011.7 |
| 20260904001904 | 86 | 157 | 3.0 | 8.0 | 0.00 | 0.00 | 0.00 | 79 | 1011.7 |
| 20260904001404 | 86 | 139 | 5.0 | 8.0 | 0.00 | 0.00 | 0.00 | 79 | 1011.7 |
| 20260904000404 | 86 | 163 | 3.0 | 6.0 | 0.00 | 0.00 | 0.00 | 79 | 1011.7 |
| 20260903235905 | 86 | 163 | 3.0 | 6.0 | 0.00 | 0.00 | 0.00 | 79 | 1011.8 |
| 20260903235403 | 86 | 131 | 1.0 | 8.0 | 0.00 | 0.00 | 0.00 | 79 | 1011.8 |
| 20260903234404 | 86 | 132 | 5.0 | 10.0 | 0.00 | 0.00 | 0.00 | 79 | 1011.8 |
| 20260903233904 | 86 | 139 | 2.0 | 7.0 | 0.00 | 0.00 | 0.00 | 79 | 1011.7 |
| 20260903233404 | 86 | 123 | 2.0 | 7.0 | 0.00 | 0.00 | 0.00 | 78 | 1011.7 |
| 20260903232904 | 86 | 121 | 4.0 | 8.0 | 0.00 | 0.00 | 0.00 | 78 | 1011.6 |
| 20260903231905 | 87 | 123 | 3.0 | 14.0 | 0.00 | 0.00 | 0.00 | 78 | 1011.6 |
| 20260903231403 | 87 | 112 | 3.0 | 8.0 | 0.00 | 0.00 | 0.00 | 78 | 1011.5 |
| 20260903230904 | 87 | 133 | 4.0 | 10.0 | 0.00 | 0.00 | 0.00 | 78 | 1011.5 |
| 20260903230404 | 87 | 131 | 5.0 | 10.0 | 0.00 | 0.00 | 0.00 | 78 | 1011.6 |
| 20260903225904 | 87 | 134 | 3.0 | 10.0 | 0.00 | 0.00 | 0.00 | 78 | 1011.6 |
| 20260903225404 | 87 | 132 | 1.0 | 10.0 | 0.00 | 0.00 | 0.00 | 78 | 1011.7 |
| 20260903224904 | 87 | 99 | 3.0 | 13.0 | 0.00 | 0.00 | 0.00 | 78 | 1011.8 |
| 20260903224404 | 87 | 120 | 4.0 | 13.0 | 0.00 | 0.00 | 0.00 | 78 | 1011.9 |
| 20260903223904 | 87 | 123 | 3.0 | 13.0 | 0.00 | 0.00 | 0.00 | 77 | 1012.0 |
| 20260903223404 | 87 | 114 | 5.0 | 9.0 | 0.00 | 0.00 | 0.00 | 77 | 1012.0 |
| 20260903222404 | 87 | 119 | 3.0 | 10.0 | 0.00 | 0.00 | 0.00 | 76 | 1011.9 |
| 20260903221904 | 87 | 129 | 3.0 | 10.0 | 0.00 | 0.00 | 0.00 | 76 | 1012.0 |
| 20260903221405 | 88 | 113 | 2.0 | 7.0 | 0.00 | 0.00 | 0.00 | 76 | 1012.1 |
| 20260903220904 | 87 | 129 | 1.0 | 8.0 | 0.00 | 0.00 | 0.00 | 76 | 1012.2 |
| 20260903215904 | 87 | 129 | 3.0 | 9.0 | 0.00 | 0.00 | 0.00 | 76 | 1012.0 |
| 20260903215405 | 87 | 127 | 3.0 | 9.0 | 0.00 | 0.00 | 0.00 | 76 | 1012.1 |
| 20260903214904 | 88 | 123 | 3.0 | 8.0 | 0.00 | 0.00 | 0.00 | 76 | 1012.3 |
| 20260903213903 | 88 | 114 | 3.0 | 6.0 | 0.00 | 0.00 | 0.00 | 76 | 1012.7 |
| 20260903213405 | 88 | 128 | 1.0 | 6.0 | 0.00 | 0.00 | 0.00 | 75 | 1012.8 |
| 20260903212904 | 88 | 129 | 3.0 | 6.0 | 0.00 | 0.00 | 0.00 | 76 | 1013.0 |
| 20260903212405 | 88 | 105 | 1.0 | 3.0 | 0.00 | 0.00 | 0.00 | 76 | 1012.8 |
| 20260903211905 | 88 | 107 | 1.0 | 3.0 | 0.00 | 0.00 | 0.00 | 76 | 1012.8 |
| 20260903211404 | 88 | 111 | 2.0 | 8.0 | 0.00 | 0.00 | 0.00 | 77 | 1012.9 |
| 20260903210904 | 88 | 89 | 3.0 | 8.0 | 0.00 | 0.00 | 0.00 | 77 | 1012.8 |
| 20260903210404 | 88 | 104 | 3.0 | 9.0 | 0.00 | 0.00 | 0.00 | 77 | 1012.9 |
| 20260903205903 | 88 | 126 | 4.0 | 9.0 | 0.00 | 0.00 | 0.00 | 77 | 1012.8 |
| 20260903205404 | 88 | 129 | 2.0 | 6.0 | 0.00 | 0.00 | 0.00 | 77 | 1012.9 |
| 20260903204905 | 88 | 125 | 3.0 | 7.0 | 0.00 | 0.00 | 0.00 | 76 | 1012.9 |
| 20260903204404 | 88 | 107 | 4.0 | 10.0 | 0.00 | 0.00 | 0.00 | 76 | 1012.7 |
| 20260903203904 | 88 | 60 | 2.0 | 10.0 | 0.00 | 0.00 | 0.00 | 76 | 1012.8 |
| 20260903203404 | 88 | 143 | 5.0 | 10.0 | 0.00 | 0.00 | 0.00 | 76 | 1013.0 |
| 20260903202404 | 88 | 95 | 5.0 | 13.0 | 0.00 | 0.00 | 0.00 | 74 | 1012.4 |
| 20260903201904 | 89 | 101 | 7.0 | 10.0 | 0.00 | 0.00 | 0.00 | 73 | 1012.5 |
| 20260903201405 | 90 | 141 | 4.0 | 8.0 | 0.00 | 0.00 | 0.00 | 72 | 1012.7 |
| 20260903200904 | 91 | 166 | 3.0 | 10.0 | 0.00 | 0.00 | 0.00 | 70 | 1012.9 |
| 20260903195904 | 93 | 138 | 7.0 | 13.0 | 0.00 | 0.00 | 0.00 | 66 | 1012.5 |
| 20260903195404 | 94 | 159 | 6.0 | 14.0 | 0.00 | 0.00 | 0.00 | 66 | 1012.7 |
| 20260903194905 | 95 | 161 | 9.0 | 14.0 | 0.00 | 0.00 | 0.00 | 65 | 1012.9 |
| 20260903194404 | 95 | 139 | 7.0 | 17.0 | 0.00 | 0.00 | 0.00 | 64 | 1013.0 |
| 20260903193904 | 95 | 137 | 10.0 | 17.0 | 0.00 | 0.00 | 0.00 | 65 | 1012.9 |
| 20260903193404 | 95 | 126 | 5.0 | 10.0 | 0.00 | 0.00 | 0.00 | 64 | 1012.8 |
| 20260903192905 | 95 | 96 | 4.0 | 12.0 | 0.00 | 0.00 | 0.00 | 62 | 1012.9 |
| 20260903192405 | 96 | 78 | 6.0 | 12.0 | 0.00 | 0.00 | 0.00 | 62 | 1012.8 |
| 20260903191904 | 96 | 132 | 6.0 | 12.0 | 0.00 | 0.00 | 0.00 | 63 | 1012.5 |
| 20260903191404 | 95 | 132 | 3.0 | 9.0 | 0.00 | 0.00 | 0.00 | 66 | 1012.5 |
| 20260903190904 | 95 | 47 | 5.0 | 9.0 | 0.00 | 0.00 | 0.00 | 64 | 1012.7 |
| 20260903185404 | 95 | 122 | 3.0 | 13.0 | 0.00 | 0.00 | 0.00 | 64 | 1012.8 |
| 20260903183404 | 96 | 51 | 3.0 | 6.0 | 0.00 | 0.00 | 0.00 | 64 | 1013.0 |
| 20260903182904 | 96 | 131 | 2.0 | 7.0 | 0.00 | 0.00 | 0.00 | 63 | 1013.0 |
| 20260903182405 | 96 | 113 | 3.0 | 7.0 | 0.00 | 0.00 | 0.00 | 63 | 1013.0 |
| 20260903181904 | 96 | 60 | 2.0 | 6.0 | 0.00 | 0.00 | 0.00 | 65 | 1013.1 |
| 20260903181403 | 95 | 71 | 3.0 | 6.0 | 0.00 | 0.00 | 0.00 | 64 | 1013.2 |
| 20260903180905 | 95 | 150 | 1.0 | 5.0 | 0.00 | 0.00 | 0.00 | 64 | 1013.2 |
| 20260903175905 | 94 | 133 | 1.0 | 3.0 | 0.00 | 0.00 | 0.00 | 65 | 1013.6 |
| 20260903175404 | 94 | 122 | 0.0 | 6.0 | 0.00 | 0.00 | 0.00 | 64 | 1013.7 |
| 20260903174904 | 94 | 119 | 3.0 | 6.0 | 0.00 | 0.00 | 0.00 | 64 | 1013.8 |
| 20260903174404 | 94 | 118 | 1.0 | 5.0 | 0.00 | 0.00 | 0.00 | 64 | 1013.8 |
| 20260903173904 | 94 | 148 | 1.0 | 6.0 | 0.00 | 0.00 | 0.00 | 65 | 1013.8 |
| 20260903173404 | 94 | 152 | 2.0 | 6.0 | 0.00 | 0.00 | 0.00 | 67 | 1013.7 |
| 20260903172904 | 93 | 161 | 0.0 | 6.0 | 0.00 | 0.00 | 0.00 | 67 | 1013.8 |